User: anonymous   Login
Location: *
(2.5500°S, 65.9667°W)
Time: 13:58:37
(UTC+00:00)
Language:

deb r/b Ablestar - Orbit

View from above orbital plane
View from above orbital plane
View from above satellite
View from above satellite

Ground track
Ground track

The orbit data is extracted from the following two-line orbital elements,

1   233U 61015BR  24193.80996827  .00015450  00000-0  19163-2 0  9996
2   233  66.8438  29.3212 0031993 285.6432  74.1164 14.82418270274507
Epoch (UTC): 11 July 2024 19:26:21
Eccentricity: 0.0031993
inclination: 66.8438°
perigee height: 599 km
apogee height: 644 km
right ascension of ascending node: 29.3212°
argument of perigee: 285.6432°
revolutions per day: 14.82418270
mean anomaly at epoch: 74.1164°
orbit number at epoch: 27450

The dashed part of the orbit path shows where the satellite is in the earth's shadow,  

DLR